Voltar ao catálogo

TDRS 8

AtivoComunicaçõesGEO
NORAD 26388·PAYLOAD·🇺🇸 United States

Lançado Jun 30, 2000 de Cape Canaveral Space Force Station

Loading…

TLE

AtualizadoSource: Space-Track

Época: Sep 14, 2026, 09:04 UTC

1 26388U 00034A   26257.37811848 -.00000201  00000-0  00000-0 0  9990
2 26388  12.8227  30.5464 0001424 107.4180  76.3488  1.00271001 96075

Acompanhe TDRS 8 em tempo real com AllMySat

Download on the App Store